STARLINK-6058, 56797

Orbit data source: Space-Track

STARLINK-6058, 56797 is a payload satellite owned by SpaceX/Seattle (US) in LEO that was launched on Wed, 31 May 2023 UTC via an FALCON 9 launch vehicle from the Air Force Western Test Range (AFWTR). Payload-class satellites include a variety of spacecraft equipped with specific instruments for various scientific and technological missions. These include communications satellites like Starlink; space stations such as the ISS; scientific satellites like the Hubble; Earth observation satellites from companies like Planet Labs, Umbra, and HawkEye 360; GPS; miniature CubeSats for education and research; and military/defense satellites.

Loading next visibility...
Identifier
56797, 2023-078AG
Orbit
LEO
Country
Flag of USUS
Related business
Manufacturer
SpaceX/Seattle
Mission
Operational Commercial Communications
Bus & Motor
STARLINK, Unknown motor
Mass
305 kg wet, ~290 kg dry
Launch date (UTC)
2023-05-31 (3 years ago)
Launch vehicle
FALCON 9
Launch site
Air Force Western Test Range (AFWTR)
Object type
Payload
Rocket body
Debris
Shape & HBR
Box + 1 Pan, 10.1 m
Radar Cross Section
11.087 m², Large (>1 m²)

Expand to show TLE details & history
Last TLE update: 2 days ago

TLE from 2 days ago
0 STARLINK-6058
1 56797U 23078AG  26171.21822005  .00001057  00000-0  96320-4 0  9998
2 56797  70.0005  86.1155 0002939 269.2222  90.8600 14.98336559168036
Epoch: 2026-06-20T05:14Z
TLE epoch observation values (Epoch: 2026-06-20T05:14:14.212Z)
Latitude
-0.00005°
Longitude
99.12027°
Altitude
574.491 km
Speed
7.574 km/s
True Right ascension
05h 44m 27s
True Declination
0° 00' 00"
Sunlit
Object was in daylight at epoch
Visualization orbit readout
Latitude
Unknown
Longitude
Unknown
Altitude
Unknown
Speed
Unknown
Apparent Right ascension
Unknown
Apparent Declination
Unknown
Sunlit
N/A
Visualization observer readout
Local Sidereal Time
21:46:02
Azimuth
Unknown
Elevation
Unknown
Doppler factor
Unknown
Orbital elements
Apogee altitude
572.026 km
Perigee altitude
567.942 km
Semi-major axis
6,948.121 km
Eccentricity
0.00029
Inclination
70.0005°
RAAN
86.1155°
Arg. of periapsis
269.2222°
True anomaly
90.89367°
Mean anomaly
90.86°
Eccentric anomaly
90.87684°
Mean motion
3.7475 °/min
Orbital period
96.06 mins
BSTAR
0.00009632
Loading maneuver chart data...
Computing Atmospheric mass density...

Documentation

Showing up to 5 results
|